User: anonymous   Login
Location: Corralito
(10.2667°N, 66.9500°W)
Time: 13:23:10
(UTC+00:00)
Language:

BlueWalker 3 - Orbit

View from above orbital plane
View from above orbital plane
View from above satellite
View from above satellite

Ground track
Ground track

The orbit data is extracted from the following two-line orbital elements,

1 53807U 22111AL  24107.22619281  .00010450  00000-0  42547-3 0  9990
2 53807  53.2391 118.9397 0007388 272.6828  87.3325 15.25046442 88778
Epoch (UTC): 16 April 2024 05:25:43
Eccentricity: 0.0007388
inclination: 53.2391°
perigee height: 485 km
apogee height: 496 km
right ascension of ascending node: 118.9397°
argument of perigee: 272.6828°
revolutions per day: 15.25046442
mean anomaly at epoch: 87.3325°
orbit number at epoch: 8877

The dashed part of the orbit path shows where the satellite is in the earth's shadow,  

DLR